{"data":{"norad_id":68214,"intl_designator":"2026-053H","name":"STARLINK-35854","alt_names":[],"object_type":"PAYLOAD","status":"ACTIVE","operator":null,"country":"US","launch_date":"2026-03-17","launch_site_code":"AFWTR","launch_vehicle":null,"mission":null,"orbit_class":"UNKNOWN","rcs_meters":null,"size_class":null,"mass_kg":null,"dimensions":null,"purposes":["comms"],"wikipedia_slug":null,"has_3d_model":false,"image_url":null,"decayed_at":null,"tle_current":{"epoch":"2026-09-19T21:39:10.613952Z","epoch_age_seconds":103879,"freshness":"FRESH","line1":"1 68214U 26053H   26262.90220618  .00010374  00000+0  32322-3 0  9992","line2":"2 68214  97.2840 136.7110 0000381 132.1231 228.0044 15.33445243 29967","mean_motion":15.33445243,"eccentricity":3.81e-5,"inclination_deg":97.284,"raan_deg":136.711,"arg_perigee_deg":132.1231,"mean_anomaly_deg":228.0044,"bstar":0.00032322,"rev_number":2996,"period_min":93.906189775829,"perigee_km":465.28170729409,"apogee_km":465.80319566829,"semimajor_km":6843.6794514812,"source":"CELESTRAK","updated_at":"2026-09-20T09:00:43.833975Z"}}}